Change the Weather History Date:

Saturday, December 21, 2013

  Actual Average Record
Temperature  
Mean Temperature -34 °F -  
Max Temperature -31 °F -6 °F 15 °F (2001)
Min Temperature -38 °F -20 °F -45 °F (2004)
Degree Days  
Heating Degree Days 100    
Moisture  
Dew Point -42 °F    
Average Humidity 67    
Maximum Humidity 68    
Minimum Humidity 61    
Precipitation  
Precipitation 0.00 in - - ()
Sea Level Pressure  
Sea Level Pressure 29.67 in    
Wind  
Wind Speed 12 mph ()    
Max Wind Speed 18 mph    
Max Gust Speed -    
Visibility 11.6 miles    
Events      
Averages and records for this station are not official NWS values.
T = Trace of Precipitation, MM = Missing Value Source: Averaged Metar Reports

Daily Weather History Graph

Daily Weather History Graph

Search for Another Location

Airport or City:

Trip Planner

Search our weather history database for the weather conditions in past years. The results will help you decide how hot, cold, wet, or windy it might be!

Date:

Astronomy

Dec. 21, 2013 Rise Set
Actual Time 11:50 AM EST 12:55 PM EST
Civil Twilight 9:56 AM EST 2:50 PM EST
Nautical Twilight 8:20 AM EST 4:25 PM EST
Astronomical Twilight 7:05 AM EST 5:40 PM EST
Moon 8:02 PM EST (12/21) 11:33 AM EST (12/21)
Length of Visible Light 4h 53m
Length of Day
1h 04m
Waning Gibbous, 84% of the Moon is Illuminated
Dec 21
Waning Gibbous
Dec 25
Last Quarter
Jan 1
New
Jan 7
First Quarter
Jan 15
Full

Hourly Weather History & Observations

Time (EST) Temp. Windchill Dew Point Humidity Pressure Visibility Wind Dir Wind Speed Gust Speed Precip Events Conditions
12:00 AM -31.0 °F -60.0 °F -38.2 °F 68% 29.51 in 9.0 mi NW 16.1 mph - N/A   Scattered Clouds
1:00 AM -31.0 °F -57.1 °F -38.2 °F 68% 29.53 in 9.0 mi NW 12.7 mph - N/A   Overcast
2:00 AM -31.0 °F -59.1 °F -38.2 °F 68% 29.55 in 9.0 mi NW 15.0 mph - N/A   Clear
3:00 AM -32.8 °F -62.3 °F -40.0 °F 68% 29.56 in 9.0 mi NW 16.1 mph - N/A   Clear
4:00 AM -32.8 °F -62.3 °F -40.0 °F 68% 29.57 in 9.0 mi NW 16.1 mph - N/A   Clear
5:00 AM -32.8 °F -64.0 °F -40.0 °F 68% 29.59 in 6.0 mi NW 18.4 mph - N/A   Haze
6:00 AM -32.8 °F -63.1 °F -40.0 °F 68% 29.61 in 9.0 mi NW 17.3 mph - N/A   Clear
7:00 AM -32.8 °F -61.4 °F -40.0 °F 68% 29.61 in 15.0 mi NW 15.0 mph - N/A   Clear
8:00 AM -32.8 °F -62.3 °F -40.0 °F 68% 29.63 in 15.0 mi NW 16.1 mph - N/A   Clear
9:00 AM -32.8 °F -62.3 °F -40.0 °F 68% 29.64 in 15.0 mi NW 16.1 mph - N/A   Clear
10:00 AM -32.8 °F -63.1 °F -40.0 °F 68% 29.64 in 15.0 mi NW 17.3 mph - N/A   Partly Cloudy
11:00 AM -32.8 °F -60.4 °F -40.0 °F 68% 29.66 in 15.0 mi NW 13.8 mph - N/A   Partly Cloudy
12:00 PM -34.6 °F -63.7 °F -41.8 °F 68% 29.67 in 15.0 mi NW 15.0 mph - N/A   Partly Cloudy
1:00 PM -34.6 °F -59.2 °F -41.8 °F 68% 29.68 in 15.0 mi NW 10.4 mph - N/A   Partly Cloudy
2:00 PM -34.6 °F -64.6 °F -41.8 °F 68% 29.69 in 15.0 mi NW 16.1 mph - N/A   Partly Cloudy
3:00 PM -34.6 °F -59.2 °F -41.8 °F 68% 29.71 in 15.0 mi NW 10.4 mph - N/A   Partly Cloudy
4:00 PM -36.4 °F -61.5 °F -43.6 °F 67% 29.72 in 15.0 mi WNW 10.4 mph - N/A   Partly Cloudy
5:00 PM -36.4 °F -61.5 °F -45.4 °F 61% 29.73 in 15.0 mi WNW 10.4 mph - N/A   Clear
6:00 PM -38.2 °F -63.7 °F -45.4 °F 67% 29.75 in 15.0 mi WNW 10.4 mph - N/A   Clear
7:00 PM -36.4 °F -61.5 °F -45.4 °F 61% 29.75 in 15.0 mi WNW 10.4 mph - N/A   Clear
7:30 PM -38.2 °F -62.3 °F -47.2 °F 61% 29.75 in 5.0 mi West 9.2 mph - N/A   Haze
7:41 PM -38.2 °F -62.3 °F -45.4 °F 67% 29.75 in 6.0 mi West 9.2 mph - N/A   Haze
8:00 PM -38.2 °F -63.7 °F -45.4 °F 67% 29.75 in 9.0 mi West 10.4 mph - N/A   Clear
9:00 PM -38.2 °F -63.7 °F -45.4 °F 67% 29.77 in 9.0 mi West 10.4 mph - N/A   Clear
10:00 PM -36.4 °F -60.1 °F -45.4 °F 61% 29.78 in 9.0 mi West 9.2 mph - N/A   Clear
11:00 PM -36.4 °F -58.5 °F -43.6 °F 67% 29.78 in 9.0 mi West 8.1 mph - N/A   Clear